(220466) = 2004 BB58

Discovered at Anderson Mesa on 2004-01-23 by LONEOS.

Orbit

Orbit type: Main Belt

Note: WebGL enabled browser required.

epoch2023-09-13.0
epoch JD2460200.5
perihelion date2022-10-11.77061
perihelion JD2459864.27061
argument of perihelion (°)270.72558
ascending node (°)328.40096
inclination (°)5.74594
eccentricity0.0620459
perihelion distance (AU)2.1925455
Tisserand w.r.t. Jupiter3.6
ΔV w.r.t. Earth (km/sec)9.4
semimajor axis (AU)2.3375828
mean anomaly (°)92.72333
mean daily motion (°/day)0.27577400
aphelion distance (AU)2.483
period (years)3.57
P-vector [x]-0.51051128
P-vector [y]-0.74373003
P-vector [z]-0.43155981
Q-vector [x]0.85826937
Q-vector [y]-0.47135419
Q-vector [z]-0.20297518
absolute magnitude16.6
phase slope0.15
uncertainty0
referenceMPEC 2024-A34
observations used593
oppositions14
arc length (days)8760
first opposition used2000
last opposition used2023
residual rms (arc-secs)0.68
perturbers coarse indicatorM-v
perturbers precise indicator003Ek
first observation date used2000-01-04.0
last observation date used2023-12-29.0
computer nameMPCLINUX
JD of orbit computation2456760.730717
perihelion JD uncertainty (days)2.2698E-04
argument of perihelion uncertainty (°)7.2997E-05
ascending node uncertainty (°)4.3886E-05
inclination uncertainty (°)6.3007E-06
eccentricity uncertainty 4.3563E-08
perihelion distance uncertainty (AU)9.7265E-08
Minimum Orbit Intersection Distances (in AU)
for orbit epoch: 2460200.5, reference: E2024-A34
Mercury1.72955
Venus1.47463
Earth1.18856
Mars0.62191
Jupiter2.52655
Saturn6.60736
Uranus16.1416
Neptune27.3918

Observations

602 total observations over interval: 2000 01 04.24666 – 2023 12 29.224054
These data are available for download (format description).

Date (UT) J2000 RA J2000 Dec Magn Location Ref
2000 01 04.24666 06 46 29.65 +30 04 53.7 19.3   704 – Lincoln Laboratory ETS, New Mexico MPS 138633
2000 01 04.26130 06 46 28.68 +30 04 53.0 19.2   704 – Lincoln Laboratory ETS, New Mexico MPS 138633
2000 01 04.27592 06 46 27.47 +30 04 53.1 19.9   704 – Lincoln Laboratory ETS, New Mexico MPS 138633
2003 11 20.41772 10 27 04.10 +11 47 00.4 21.8 V 691 – Steward Observatory, Kitt Peak-Spacewatch MPS 100128
2003 11 20.44139 10 27 05.68 +11 46 49.6 22.4 V 691 – Steward Observatory, Kitt Peak-Spacewatch MPS 100128
2003 11 20.46012 10 27 06.92 +11 46 41.5 21.5 V 691 – Steward Observatory, Kitt Peak-Spacewatch MPS 100128
2004 01 23.37651 10 56 50.87 +06 59 29.5 20.3 R 699 – Lowell Observatory-LONEOS MPS 97933
2004 01 23.38983 10 56 50.59 +06 59 27.5   699 – Lowell Observatory-LONEOS MPS 97933
2004 01 23.40307 10 56 50.27 +06 59 27.4   699 – Lowell Observatory-LONEOS MPS 97933
2004 01 23.41642 10 56 49.93 +06 59 27.0   699 – Lowell Observatory-LONEOS MPS 97933
2004 01 24.37108 10 56 26.23 +06 59 19.1 20.2   704 – Lincoln Laboratory ETS, New Mexico MPS 97933
2004 01 24.38357 10 56 25.87 +06 59 19.5 20.3   704 – Lincoln Laboratory ETS, New Mexico MPS 97933
2004 01 24.39605 10 56 25.45 +06 59 19.7 20.2   704 – Lincoln Laboratory ETS, New Mexico MPS 97933
2004 02 11.34359 10 44 09.08 +07 20 20.3 19.9 V 703 – Catalina Sky Survey MPS 98863
2004 02 11.35736 10 44 08.26 +07 20 21.5 19.8 V 703 – Catalina Sky Survey MPS 98863
2004 02 11.37115 10 44 07.45 +07 20 24.1 19.4 V 703 – Catalina Sky Survey MPS 98863
2004 02 11.38506 10 44 06.69 +07 20 26.5 20.2 V 703 – Catalina Sky Survey MPS 98863
2004 02 11.39726 10 44 05.98 +07 20 27.9 19.1   644 – Palomar Mountain/NEAT MPS 100128
2004 02 11.42145 10 44 04.65 +07 20 31.1 18.9   644 – Palomar Mountain/NEAT MPS 100128
2004 02 11.44209 10 44 03.50 +07 20 33.7 19.1   644 – Palomar Mountain/NEAT MPS 100128
2004 02 17.23017 10 38 30.96 +07 35 11.1 19.8 V 691 – Steward Observatory, Kitt Peak-Spacewatch MPS 98863
2004 02 17.25784 10 38 29.24 +07 35 15.8 19.9 V 691 – Steward Observatory, Kitt Peak-Spacewatch MPS 98863
2004 02 17.28747 10 38 27.40 +07 35 20.8 19.9 V 691 – Steward Observatory, Kitt Peak-Spacewatch MPS 98863
2004 02 17.44724 10 38 17.67 +07 35 48.8 19.9   608 – Haleakala-AMOS MPS 100128
2004 02 17.45778 10 38 17.02 +07 35 50.7 20.0   608 – Haleakala-AMOS MPS 100128
2004 02 17.46824 10 38 16.36 +07 35 52.4 20.1   608 – Haleakala-AMOS MPS 100128
2004 02 18.29322 10 37 26.40 +07 38 09.4 19.0   704 – Lincoln Laboratory ETS, New Mexico MPS 100128
2004 02 18.33178 10 37 23.90 +07 38 14.5 19.9   704 – Lincoln Laboratory ETS, New Mexico MPS 100128
2004 02 18.34355 10 37 23.19 +07 38 17.5 19.7   704 – Lincoln Laboratory ETS, New Mexico MPS 100128
2004 02 26.19330 10 29 09.97 +08 01 40.8 20.3 R 333 – Desert Eagle Observatory MPS 100128
2004 02 26.25837 10 29 05.69 +08 01 52.2 19.7 R 333 – Desert Eagle Observatory MPS 100128
2004 02 26.27900 10 29 04.33 +08 01 55.6 18.9   704 – Lincoln Laboratory ETS, New Mexico MPS 100128
2004 02 26.29018 10 29 03.59 +08 01 57.0 18.9   704 – Lincoln Laboratory ETS, New Mexico MPS 100128
2004 02 26.30140 10 29 02.81 +08 01 59.7 19.2   704 – Lincoln Laboratory ETS, New Mexico MPS 100128
2004 02 26.31256 10 29 02.09 +08 02 01.7 18.6   704 – Lincoln Laboratory ETS, New Mexico MPS 100128
2004 02 26.32258 10 29 01.44 +08 02 03.6 19.9 R 333 – Desert Eagle Observatory MPS 100128
2004 02 26.32373 10 29 01.37 +08 02 03.6 18.8   704 – Lincoln Laboratory ETS, New Mexico MPS 100128
2004 03 15.25077 10 11 17.81 +08 51 38.4 19.1   704 – Lincoln Laboratory ETS, New Mexico MPS 101211
2004 03 15.27207 10 11 16.69 +08 51 40.3 19.4   704 – Lincoln Laboratory ETS, New Mexico MPS 101211
2004 03 15.28288 10 11 16.11 +08 51 41.3 19.8   704 – Lincoln Laboratory ETS, New Mexico MPS 101211
2004 03 15.29361 10 11 15.53 +08 51 43.1 19.5   704 – Lincoln Laboratory ETS, New Mexico MPS 101211
2004 03 16.54460 10 10 12.90 +08 54 23.6 20.8   608 – Haleakala-AMOS MPS 101211
2004 03 16.55486 10 10 12.43 +08 54 24.5 20.9   608 – Haleakala-AMOS MPS 101211
2004 03 16.56585 10 10 11.86 +08 54 25.8 21.2   608 – Haleakala-AMOS MPS 101211
2004 03 17.14694 10 09 44.25 +08 55 34.9 20.0 V 691 – Steward Observatory, Kitt Peak-Spacewatch MPS 101211
2004 03 17.17563 10 09 42.80 +08 55 38.4 20.0 V 691 – Steward Observatory, Kitt Peak-Spacewatch MPS 101211
2004 03 17.20437 10 09 41.36 +08 55 41.8 19.9 V 691 – Steward Observatory, Kitt Peak-Spacewatch MPS 101211
2004 03 18.28323 10 08 50.21 +08 57 46.4 19.1   704 – Lincoln Laboratory ETS, New Mexico MPS 101211
2004 03 18.30638 10 08 49.09 +08 57 49.0 19.0   704 – Lincoln Laboratory ETS, New Mexico MPS 101211
2004 03 18.31781 10 08 48.55 +08 57 50.9 19.5   704 – Lincoln Laboratory ETS, New Mexico MPS 101211
2004 03 18.32946 10 08 47.98 +08 57 51.1 19.3   704 – Lincoln Laboratory ETS, New Mexico MPS 101211
2005 07 04.38828 21 48 00.58 -17 01 06.1 19.9   644 – Palomar Mountain/NEAT MPS 138633
2005 07 04.41243 21 48 00.03 -17 01 06.4 19.7   644 – Palomar Mountain/NEAT MPS 138633
2005 07 04.42439 21 47 59.75 -17 01 06.6 19.6   644 – Palomar Mountain/NEAT MPS 138633
2005 07 27.32688 21 32 23.65 -17 28 49.9 19.1   644 – Palomar Mountain/NEAT MPS 138633
2005 07 27.35480 21 32 21.98 -17 28 53.1 19.1   644 – Palomar Mountain/NEAT MPS 138633
2005 07 27.37835 21 32 20.58 -17 28 55.9 19.7   644 – Palomar Mountain/NEAT MPS 138633
2005 08 06.22927 21 22 18.67 -17 47 16.9 19.8   704 – Lincoln Laboratory ETS, New Mexico MPS 139323
2005 08 06.24114 21 22 17.86 -17 47 16.8 19.8   704 – Lincoln Laboratory ETS, New Mexico MPS 139323
2005 08 06.25294 21 22 17.17 -17 47 18.0 19.9   704 – Lincoln Laboratory ETS, New Mexico MPS 139323
2005 08 29.18282 20 59 48.20 -18 10 48.9 19.3 R 699 – Lowell Observatory-LONEOS MPS 140199
2005 08 29.19915 20 59 47.50 -18 10 49.3   699 – Lowell Observatory-LONEOS MPS 140199
2005 08 29.21555 20 59 46.64 -18 10 48.8   699 – Lowell Observatory-LONEOS MPS 140199
2005 08 29.23198 20 59 45.73 -18 10 47.9   699 – Lowell Observatory-LONEOS MPS 140199
2008 04 30.30756 14 29 18.42 -25 24 02.7 18.7 V 703 – Catalina Sky Survey MPS 286887
2008 04 30.31165 14 29 17.98 -25 24 01.6 19.0 V 703 – Catalina Sky Survey MPS 286887
2008 04 30.31575 14 29 17.70 -25 23 59.9 18.9 V 703 – Catalina Sky Survey MPS 286887
2008 04 30.31986 14 29 17.34 -25 23 58.8 18.8 V 703 – Catalina Sky Survey MPS 286887
2008 05 10.58851 14 18 42.58 -24 41 58.0 18.9 V E12 – Siding Spring Survey MPS 249798
2008 05 10.60074 14 18 41.79 -24 41 54.9 19.1 V E12 – Siding Spring Survey MPS 249798
2008 05 10.61294 14 18 41.07 -24 41 51.5 19.2 V E12 – Siding Spring Survey MPS 249798
2008 05 10.62522 14 18 40.32 -24 41 47.8 19.3 V E12 – Siding Spring Survey MPS 249798
2009 09 13.76019 01 02 35.83 +13 06 13.8 18.7 R D29 – Purple Mountain Observatory, XuYi Station MPS 294973
2009 09 13.77294 01 02 35.24 +13 06 14.4 19.6 R D29 – Purple Mountain Observatory, XuYi Station MPS 294973
2009 09 13.78536 01 02 34.65 +13 06 12.9 19.6 R D29 – Purple Mountain Observatory, XuYi Station MPS 294973
2009 09 13.79814 01 02 34.05 +13 06 12.0 19.2 R D29 – Purple Mountain Observatory, XuYi Station MPS 294973
2009 09 15.28565 01 01 24.56 +13 04 18.9 20.0 V 691 – Steward Observatory, Kitt Peak-Spacewatch MPS 294974
2009 09 15.30330 01 01 23.67 +13 04 17.3 20.1 V 691 – Steward Observatory, Kitt Peak-Spacewatch MPS 294974
2009 09 15.32100 01 01 22.79 +13 04 15.7 19.8 V 691 – Steward Observatory, Kitt Peak-Spacewatch MPS 294974
2009 09 19.23885 00 58 05.77 +12 57 17.8   691 – Steward Observatory, Kitt Peak-Spacewatch MPS 295788
2009 09 19.25648 00 58 04.78 +12 57 15.6   691 – Steward Observatory, Kitt Peak-Spacewatch MPS 295788
2009 09 19.27444 00 58 03.83 +12 57 13.6   691 – Steward Observatory, Kitt Peak-Spacewatch MPS 295788
2009 09 23.24270 00 54 27.29 +12 47 25.0 19.9 V 691 – Steward Observatory, Kitt Peak-Spacewatch MPS 295788
2009 09 23.26039 00 54 26.25 +12 47 22.2 19.8 V 691 – Steward Observatory, Kitt Peak-Spacewatch MPS 295788
2009 09 23.27806 00 54 25.23 +12 47 19.6 19.9 V 691 – Steward Observatory, Kitt Peak-Spacewatch MPS 295788
2009 09 30.23714 00 47 37.39 +12 24 09.4 19.4 V G96 – Mt. Lemmon Survey MPS 296889
